Voltar ao catálogo

ONEWEB-0633

AtivoComunicaçõesPO
NORAD 56074·PAYLOAD·🇬🇧 United Kingdom

Lançado Mar 26, 2023 de Satish Dhawan Space Centre

Loading…

Próximas Passagens (próximas 24 horas)

TLE

AtualizadoSource: CelesTrak SupGP

Época: Sep 14, 2026, 23:50 UTC

1 56074C 23043AE  26257.99323333 -.00002720  00000+0 -72330-2 0  2577
2 56074  87.8988 241.2878 0001910  74.6461 315.6559 13.15552122    15

Acompanhe ONEWEB-0633 em tempo real com AllMySat

Download on the App Store